THOR AGENA B DEB, 1948

Orbit data source: Space-Track

THOR AGENA B DEB, 1948 is space debris in LEO originally from a launch on Mon, 29 Nov 1965 UTC launched from the Air Force Western Test Range (AFWTR). Debris objects in space refer to the collection of defunct objects orbiting the Earth. Examples of debris include non-operational satellites, rocket bodies, and fragments generated from explosions, collisions, or faulty payload assembly.

Loading next visibility...
THOR AGENA B DEB details
Identifier
1948, 1965-098F
Orbit
LEO
Last TLE update23 hours ago
Origin
Flag of USGSFC (US)
ManufacturerUnknown
MissionSpacecraft
Bus & MotorUnknown
Mass~1 kg wet, ~1 kg dry
Launch date (UTC)
1965-11-29 (59 years ago)
Launch vehicleUnknown
Launch site
Air Force Western Test Range (AFWTR)
Object type
Payload
Rocket body
Debris
Shape & HBRHalf Cyl + Cone, 1.5 m
Radar Cross Section0.531 m², Medium (>0.1 m² and < 1m²)

Expand to show TLE details & history

TLE from 23 hours ago
0 THOR AGENA B DEB
1 01948U 65098F   24355.60939987  .00021278  00000-0  40305-2 0  9994
2 01948  79.8470 123.9759 0788827 175.2705 185.6498 13.52229593735403
Epoch: 2024-12-20T14:37Z
Definitive object data (Epoch: 2024-12-20T14:37:32.148Z)
Latitude-0.00005°
Longitude174.91949°
Altitude1,651.583 km
Speed6.765 km/s
True Right ascension08h 15m 54s
True Declination0° 00' 00"
Sunlit
Object was in full shadow at TLE epoch
Visualization TLE readout
Latitude-55.01149°
Longitude159.18655°
Altitude1,442.219 km
Speed6.966 km/s
Apparent Right ascension03h 37m 04s
Apparent Declination-60° 26' 42"
Sunlit
Object is in daylight
Visualization observer readout
Local Sidereal Time12:25:34
Azimuth218.808° SW
Elevation-54.285°
Doppler factor1
Orbital elements
Apogee altitude1,648.212 km
Perigee altitude474.516 km
Semi-major axis7,439.501 km
Eccentricity0.0788827
Inclination79.847°
RAAN123.9759°
Arg. of periapsis175.2705°
True anomaly184.83969°
Mean anomaly185.6498°
Eccentric anomaly185.23725°
Mean motion3.38242 °/min
BSTAR0.0040305
Orbital period106.43 mins
Loading maneuver chart data...
Loading historical data...
Loading historical data...
Loading historical data...
Loading historical data...
Loading historical data...
Loading historical data...
Loading historical data...

THOR AGENA B DEB Visibility forecast

Observer location: undefined°, undefined

Span
Click to sort rows by Start time (UTC) header in descending order
Start Az.
Max El. time (UTC)
Max El. Az.
Max El.
End time (UTC)
End Az.
6 mins2024-12-21 19:40:37.361Z16.139° NNE2024-12-21 19:43:37.361Z63.431° ENE22.017°2024-12-21 19:46:37.361Z120.557° SE
4 mins2024-12-21 21:29:37.361Z300.534° NW2024-12-21 21:31:37.361Z264.356° W16.64°2024-12-21 21:33:37.361Z230.787° WSW
8 mins2024-12-22 07:37:37.361Z111.43° ESE2024-12-22 07:41:37.361Z82.722° E15.369°2024-12-22 07:45:37.361Z52.544° ENE
15 mins2024-12-22 09:20:37.361Z182.993° SSW2024-12-22 09:28:37.361Z72.663° E44.507°2024-12-22 09:35:37.361Z13.84° NNE
10 mins2024-12-22 11:11:37.361Z253.265° W2024-12-22 11:16:37.361Z293.683° NW21.202°2024-12-22 11:21:37.361Z338.057° N
|